EUTELSAT 172B

Last updated on Sun Aug 31 2025 00:02:49 GMT+0000 (Coordinated Universal Time)

1 42741U 17029B 25241.91797230 -.00000002 00000+0 00000+0 0 9990 2 42741 0.0175 151.7684 0000251 260.7188 68.3478 1.00273757 30815
UTC large
Height (km)
Speed (km/s)
/
Latitude / Longitude
Inclination (degrees)
Orbital Period (minutes)
Azimuth
Elevation
Range (km)
Doppler Factor

Next 0 passes for location: London (51.5072 / 0.1276)

Sorry there are no passes over London.